Weather in Sandanski

Bulgaria     41°33′36″N   23°16′49″E
temp.,
°C
wind,
m/s
gust,
m/s
humid.,
%
clouds,
%
prec.,
mm/h
press.,
hPa
HPBL,
m
8 may, sat
sat800:00+15n127235 0.0 101211
03:00+14nnw127482 0.0 101114
06:00+13n22775 0.0 101115
09:00+16nw566681 0.0 1014522
12:00+17nw5656100 0.0 1015731
15:00+20nw45475 0.0 10141133
18:00+19nw46484 0.0 1015975
21:00+13nw356199 0.0 101891
9 may, sun
sun900:00+10nw33644 0.0 102151
03:00+8nnw336445 0.0 102338
06:00+7nnw226340 0.0 102428
09:00+12nw01526 0.0 1025312
12:00+16s224534 0.0 10251061
15:00+19sse32455 0.0 10241679
18:00+18s42545 0.0 10231322
21:00+12sse12817 0.0 102511
10 may, mon
mon1000:00+10nw018711 0.0 102612
03:00+9nw11890 0.0 102510
06:00+8n11910 0.0 102510
09:00+12s11760 0.0 1025380
12:00+17sse22602 0.0 1023947
15:00+20sse325313 0.0 10221290
18:00+20sse32551 0.0 10201096
21:00+14sse22798 0.0 102116
11 may, tue
tue1100:00+11s01875 0.0 102210
03:00+10nw11895 0.0 102110
06:00+9nnw00911 0.0 102110
09:00+13s11741 0.0 1021363
12:00+18sse22590 0.0 1019865
15:00+21sse32544 0.0 10171186
18:00+21sse22560 0.0 10151128
21:00+15sse12780 0.0 101515
12 may, wed
wed1200:00+11s11880 0.0 101611
03:00+10nne01900 0.0 101510
06:00+9nne01915 0.0 101410
09:00+13ssw117799 0.0 1013352
12:00+18sse336193 0.0 1011808
15:00+21sse335539 0.0 10091166
18:00+21sse33541 0.0 10071164
21:00+17sse226989 0.0 100719